Regional Weather Roundup
Issued by NWS

Home | Current Version | Previous Version | Text Only | Print | Product List | Glossary Off
Versions: 1 2 3 4 5 6 7 8 9 10 11 12 13 14 15 16 17 18 19 20 21 22 23 24 25 26 27 28 29 30 31 32 33 34 35 36 37 38 39 40 41 42 43 44 45 46 47 48 49 50

000
ASUS43 KFSD 020202
RWRSD

WEATHER ROUNDUP FOR SOUTH DAKOTA
NATIONAL WEATHER SERVICE SIOUX FALLS SD
900 PM CDT FRI AUG 01 2014

NOTE: "FAIR" INDICATES FEW OR NO CLOUDS BELOW 12,000 FEET WITH NO
SIGNIFICANT WEATHER AND/OR OBSTRUCTIONS TO VISIBILITY.


SDZ001>005-009-010-012>017-020300-
NORTHWEST AND NORTH CENTRAL SOUTH DAKOTA

CITY           SKY/WX    TMP DP  RH WIND       PRES   REMARKS
BUFFALO          N/A     79  56  45 N13       29.99S
FAITH            N/A     79  50  36 SE8       29.99F
MOBRIDGE       CLEAR     76  61  59 E12       29.99R
$$

SDZ012>016-024>037-041>051-057-063-072>074-020300-
SOUTHWEST AND SOUTH CENTRAL SOUTH DAKOTA

CITY           SKY/WX    TMP DP  RH WIND       PRES   REMARKS
RAPID CTY ARPT CLOUDY    78  48  34 W5        30.06R
PIERRE         CLOUDY    72  58  61 SW5       30.04R
CUSTER         PTCLDY    68  46  45 CALM      30.24S
PHILIP         MOCLDY    79  54  41 VRB5      30.00R
PINE RIDGE     CLOUDY    73  54  51 SE7       30.09F
WINNER         FAIR      83  56  39 SW9       30.07R
$$

SDZ004>011-016>023-039-040-020300-
NORTHEAST SOUTH DAKOTA

CITY           SKY/WX    TMP DP  RH WIND       PRES   REMARKS
ABERDEEN       MOCLDY    72  61  68 E6        30.04S HAZE
WATERTOWN      PTCLDY    74  57  55 SE3       30.07F
SISSETON         N/A     72  67  84 SE5       30.04F
$$

SDZ017-020-022-023-036>040-048>070-020300-
SOUTHEAST SOUTH DAKOTA

CITY           SKY/WX    TMP DP  RH WIND       PRES   REMARKS
SIOUX FALLS    PTCLDY    73  57  57 SE5       30.08S
HURON          CLEAR     74  59  59 SE5       30.03F
CHAMBERLAIN    PTCLDY    77  54  44 SE13      30.04R
MITCHELL       CLEAR     73  60  63 S7        30.06S
YANKTON        CLEAR     73  61  64 E5        30.07S
$$

ABBREVIATIONS USED IN REMARKS
   TC - TEMPERATURE IN CELSIUS
  WCI - WIND CHILL INDEX
   HX - HEAT INDEX
  VSB - VISIBILITY



USA.gov is the U.S. government's official web portal to all federal, state and local government web resources and services.